Location: Az?znagar
(16.8373°N, 80.5091°E)
Time: 13:52:05
(UTC+00:00)

CZ-4C R/B - Pass Details

Date: 06 July 2022
Orbit: 395 x 462 km, 97.7° (Epoch: 14 August)

Event Time Altitude Azimuth Distance (km) Brightness Sun altitude
Rises 13:37:59 0° 17° (NNE) 2,458 6.8 -5.7°
Reaches altitude 10° 13:40:02 10° 21° (NNE) 1,593 5.8 -6.1°
Maximum altitude 13:43:24 56° 101° (E) 550 3.0 -6.9°
Drops below altitude 10° 13:46:48 10° 180° (S) 1,608 5.4 -7.6°
Sets 13:48:52 0° 184° (S) 2,484 6.4 -8.0°
